Location: Kellogg
(38.0159°N, 90.0546°W)
Time: 14:41:43
(UTC+00:00)

Courier 1B - Pass Details

Date: 16 September 2024
Orbit: 962 x 1208 km, 28.3° (Epoch: 07 October)

Event Time Altitude Azimuth Distance (km) Brightness Sun altitude
Rises 21:15:49 0° 252° (WSW) 3,890 11.8 31.8°
Reaches altitude 10° 21:18:41 10° 245° (WSW) 2,971 11.6 31.3°
Maximum altitude 21:25:27 40° 179° (S) 1,633 9.3 30.1°
Drops below altitude 10° 21:32:32 10° 113° (ESE) 3,111 9.8 28.8°
Sets 21:35:36 0° 106° (ESE) 4,092 10.3 28.2°
